DECAYED

STARLINK-30192, 57405 (Decayed)

Orbit data source: Space-Track

STARLINK-30192, 57405 was a payload satellite owned by SpaceX/Seattle (US) in LEO that was launched on Thu, 20 Jul 2023 UTC via an FALCON 9 launch vehicle from the Air Force Western Test Range (AFWTR). Payload-class satellites include a variety of spacecraft equipped with specific instruments for various scientific and technological missions. These include communications satellites like Starlink; space stations such as the ISS; scientific satellites like the Hubble; Earth observation satellites from companies like Planet Labs, Umbra, and HawkEye 360; GPS; miniature CubeSats for education and research; and military/defense satellites.

Not visible in the next 10 days
Identifier
57405, 2023-102B
Orbit
Decayed
Country
Flag of USUS
Related business
Manufacturer
SpaceX/Seattle
Mission
Decayed Commercial Communications
Bus & Motor
STARLINK V2M, Unknown motor
Mass
730 kg wet, ~700 kg dry
Launch date (UTC)
2023-07-20 (3 years ago)
Launch vehicle
FALCON 9
Launch site
Air Force Western Test Range (AFWTR)
Object type
Payload
Rocket body
Debris
Shape & HBR
Box + 2 Pan, 17.7 m
Radar Cross Section
33.884 m², Large (>1 m²)

Expand to show TLE details & history
Last TLE update: 5 months ago

TLE from 5 months ago
0 STARLINK-30192
1 57405U 23102B   26026.51836166  .02598251  91304-2  27007-2 0  9990
2 57405  42.9877  69.2343 0009790  78.2459 281.9522 16.11754313140452
Epoch: 2026-01-26T12:26Z
TLE epoch observation values (Epoch: 2026-01-26T12:26:26.447Z)
Latitude
0.00003°
Longitude
116.81117°
Altitude
240.465 km
Speed
7.765 km/s
True Right ascension
04h 36m 56s
True Declination
0° 00' 00"
Sunlit
Object was in full shadow at epoch
Visualization orbit readout
Latitude
Unknown
Longitude
Unknown
Altitude
Unknown
Speed
Unknown
Apparent Right ascension
Unknown
Apparent Declination
Unknown
Sunlit
N/A
Visualization observer readout
Local Sidereal Time
21:29:11
Azimuth
Unknown
Elevation
Unknown
Doppler factor
Unknown
Orbital elements
Apogee altitude
250.536 km
Perigee altitude
237.57 km
Semi-major axis
6,622.19 km
Eccentricity
0.00098
Inclination
42.9877°
RAAN
69.2343°
Arg. of periapsis
78.2459°
True anomaly
281.84242°
Mean anomaly
281.9522°
Eccentric anomaly
281.89731°
Mean motion
4.02755 °/min
Orbital period
89.38 mins
BSTAR
0.0027007
Loading maneuver chart data...
Computing Atmospheric mass density...
Loading historical data...
Loading historical data...
Loading historical data...
Loading historical data...
Loading historical data...
Loading historical data...
Loading historical data...

Documentation

Showing up to 5 results
|